This is the latest recevied weather packets stored in our database for station/object N2PUI. If no packets are shown the sender has not sent any weather packets the latest 1 day(s).
| Time | Temp. | Humidity | Pressure | Rain* | Wind** | Luminosity | Snow |
|---|---|---|---|---|---|---|---|
| 1778024626 | 16.67° C | 85% | 1007.8 hPa | 0 mm | 0 m/s | 10 W/m² | - |
| 1778024323 | 16.67° C | 85% | 1007.6 hPa | 0 mm | 0 m/s | 14 W/m² | - |
| 1778024021 | 16.67° C | 85% | 1007.8 hPa | 0 mm | 0 m/s | 15 W/m² | - |
| 1778023718 | 16.67° C | 85% | 1007.7 hPa | 0 mm | 0.45 m/s, 191° | 17 W/m² | - |
| 1778023416 | 17.22° C | 84% | 1007.8 hPa | 0 mm | 0 m/s | 24 W/m² | - |
| 1778023112 | 17.22° C | 84% | 1007.8 hPa | 0 mm | 0 m/s | 30 W/m² | - |
| 1778022810 | 17.22° C | 83% | 1007.6 hPa | 1.78 mm | 0 m/s | 30 W/m² | - |
| 1778022508 | 17.22° C | 83% | 1007.6 hPa | 1.78 mm | 0 m/s | 23 W/m² | - |
| 1778022205 | 17.22° C | 82% | 1007.3 hPa | 0 mm | 0 m/s | 18 W/m² | - |
| 1778021901 | 17.78° C | 81% | 1007.4 hPa | 0 mm | 0.45 m/s, 155° | 19 W/m² | - |
| 1778021599 | 17.78° C | 80% | 1007.6 hPa | 0 mm | 0.89 m/s, 205° | 17 W/m² | - |
| 1778021294 | 17.78° C | 80% | 1007.8 hPa | 0 mm | 0.45 m/s, 173° | 12 W/m² | - |
| 1778020992 | 17.78° C | 80% | 1008 hPa | 0 mm | 0.89 m/s, 163° | 7 W/m² | - |
| 1778020688 | 17.78° C | 81% | 1007.9 hPa | 1.27 mm | 0 m/s | 12 W/m² | - |
| 1778020386 | 18.33° C | 81% | 1007.9 hPa | 1.27 mm | 0 m/s | 17 W/m² | - |
| 1778020081 | 18.33° C | 79% | 1007.5 hPa | 0 mm | 0 m/s | 16 W/m² | - |
| 1778019777 | 18.33° C | 78% | 1007.5 hPa | 0 mm | 0 m/s | 10 W/m² | - |
| 1778019475 | 18.89° C | 78% | 1007.3 hPa | 0 mm | 0.45 m/s, 160° | 12 W/m² | - |
| 1778019171 | 18.33° C | 77% | 1006.8 hPa | 0 mm | 0.89 m/s, 134° | 22 W/m² | - |
| 1778018868 | 18.89° C | 77% | 1007.4 hPa | 0 mm | 0 m/s | 29 W/m² | - |
| 1778018565 | 18.89° C | 77% | 1006.8 hPa | 0 mm | 0 m/s | 29 W/m² | - |
| 1778018264 | 18.89° C | 77% | 1006.9 hPa | 0 mm | 0.45 m/s, 160° | 38 W/m² | - |
| 1778017961 | 18.89° C | 76% | 1007.2 hPa | 0 mm | 0 m/s | 72 W/m² | - |
| 1778017659 | 18.89° C | 77% | 1006.9 hPa | 0 mm | 0 m/s | 127 W/m² | - |
| 1778017356 | 18.89° C | 77% | 1006.8 hPa | 0 mm | 0 m/s | 196 W/m² | - |
* Rain latest hour (hover to see other rain measurements)
** Current wind speed in m/s (hover to see current wind gust speed)